View from above orbital plane
|
View from above satellite
|
Ground track
|
The orbit data is extracted from the following two-line orbital elements,
1 33591U 09005A 21023.54651284 .00000041 00000-0 47309-4 0 9990
2 33591 99.1928 40.5906 0014035 175.2281 184.9026 14.12449561616206
Epoch (UTC): | 23 January 2021 13:06:58 |
Eccentricity: | 0.0014035 |
inclination: | 99.1928° |
perigee height: | 841 km |
apogee height: | 861 km |
right ascension of ascending node: | 40.5906° |
argument of perigee: | 175.2281° |
revolutions per day: | 14.12449561 |
mean anomaly at epoch: | 184.9026° |
orbit number at epoch: | 61620 |
The dashed part of the orbit path shows where the satellite is in the earth's shadow,
|
|